Powrót do katalogu

YUNYAO-1 60

AktywnyPogodaSSO
NORAD 63296·PAYLOAD·🇨🇳 China
Ta nazwa satelity nie została jeszcze potwierdzona przez oficjalne źródła.

Wystrzelony Mar 17, 2025 z Jiuquan Satellite Launch Center

Loading…

Następne Przeloty (najbliższe 24 godziny)

TLE

ŚwieżeSource: Space-Track

Epoka: Sep 14, 2026, 14:53 UTC

1 63296U 25055F   26257.62067637  .00007498  00000-0  37343-3 0  9993
2 63296  97.6648  38.3348 0011644 170.7467 189.3983 15.17821188 82569

Śledź YUNYAO-1 60 w czasie rzeczywistym z AllMySat

Download on the App Store